| time (UTC) | temp F | wind direction | speed MPH | gust MPH | rain 1hr in | rain 24hr in | rain mn in | humidity % | barometer mb |
| 20260506143039 | 60 | 184 | 2.0 | 8.0 | 0.03 | 0.04 | 0.04 | 92 | 1012.1 |
| 20260506141536 | 60 | 184 | 4.0 | 9.0 | 0.02 | 0.03 | 0.03 | 90 | 1012.2 |
| 20260506140037 | 60 | 184 | 5.0 | 9.0 | 0.00 | 0.01 | 0.01 | 88 | 1011.8 |
| 20260506134533 | 61 | 207 | 6.0 | 12.0 | 0.01 | 0.01 | 0.01 | 87 | 1011.8 |
| 20260506133039 | 61 | 186 | 7.0 | 13.0 | 0.01 | 0.01 | 0.01 | 86 | 1011.8 |
| 20260506131530 | 61 | 194 | 5.0 | 12.0 | 0.01 | 0.01 | 0.01 | 86 | 1011.8 |
| 20260506130026 | 60 | 175 | 3.0 | 9.0 | 0.01 | 0.01 | 0.01 | 86 | 1011.8 |
| 20260506124521 | 61 | 145 | 5.0 | 7.0 | 0.00 | 0.00 | 0.00 | 84 | 1011.8 |
| 20260506123018 | 61 | 171 | 2.0 | 8.0 | 0.00 | 0.00 | 0.00 | 83 | 1011.7 |
| 20260506121516 | 62 | 228 | 3.0 | 10.0 | 0.00 | 0.00 | 0.00 | 81 | 1011.8 |
| 20260506120014 | 62 | 212 | 4.0 | 9.0 | 0.00 | 0.00 | 0.00 | 78 | 1011.9 |
| 20260506114513 | 62 | 227 | 6.0 | 14.0 | 0.00 | 0.00 | 0.00 | 77 | 1011.4 |
| 20260506113011 | 62 | 177 | 6.0 | 14.0 | 0.00 | 0.00 | 0.00 | 77 | 1011.0 |
| 20260506111508 | 62 | 178 | 5.0 | 11.0 | 0.00 | 0.00 | 0.00 | 78 | 1010.8 |
| 20260506110005 | 62 | 188 | 4.0 | 11.0 | 0.00 | 0.00 | 0.00 | 78 | 1011.0 |
| 20260506104508 | 61 | 179 | 4.0 | 8.0 | 0.00 | 0.00 | 0.00 | 79 | 1010.7 |
| 20260506103110 | 61 | 195 | 2.0 | 10.0 | 0.00 | 0.00 | 0.00 | 79 | 1010.8 |
| 20260506101558 | 61 | 223 | 4.0 | 10.0 | 0.00 | 0.00 | 0.00 | 79 | 1011.1 |
| 20260506100057 | 61 | 200 | 3.0 | 12.0 | 0.00 | 0.00 | 0.00 | 79 | 1010.9 |
| 20260506094556 | 61 | 149 | 4.0 | 8.0 | 0.00 | 0.00 | 0.00 | 79 | 1010.8 |
| 20260506093055 | 62 | 177 | 4.0 | 10.0 | 0.00 | 0.00 | 0.00 | 78 | 1010.9 |
| 20260506091555 | 62 | 182 | 4.0 | 9.0 | 0.00 | 0.00 | 0.00 | 78 | 1011.1 |
| 20260506090051 | 62 | 215 | 5.0 | 12.0 | 0.00 | 0.00 | 0.00 | 77 | 1011.3 |
| 20260506084550 | 62 | 188 | 6.0 | 14.0 | 0.00 | 0.00 | 0.00 | 77 | 1011.3 |
| 20260506083049 | 63 | 153 | 3.0 | 10.0 | 0.00 | 0.00 | 0.00 | 76 | 1011.3 |
| 20260506081545 | 63 | 178 | 5.0 | 15.0 | 0.00 | 0.00 | 0.00 | 76 | 1011.3 |
| 20260506073040 | 63 | 157 | 4.0 | 10.0 | 0.00 | 0.00 | 0.00 | 76 | 1011.7 |
| 20260506071537 | 63 | 180 | 3.0 | 8.0 | 0.00 | 0.00 | 0.00 | 76 | 1011.7 |
| 20260506061530 | 63 | 186 | 4.0 | 11.0 | 0.00 | 0.00 | 0.00 | 73 | 1012.1 |
| 20260506044517 | 65 | 178 | 6.0 | 15.0 | 0.00 | 0.00 | 0.00 | 63 | 1012.6 |
| 20260506043017 | 65 | 140 | 4.0 | 8.0 | 0.00 | 0.00 | 0.00 | 61 | 1012.5 |
| 20260506041512 | 65 | 141 | 3.0 | 10.0 | 0.00 | 0.00 | 0.00 | 59 | 1012.5 |
| 20260506040013 | 65 | 142 | 4.0 | 8.0 | 0.00 | 0.00 | 0.00 | 58 | 1012.4 |
| 20260506034511 | 66 | 152 | 3.0 | 8.0 | 0.00 | 0.00 | 0.00 | 57 | 1012.4 |
| 20260506033013 | 66 | 144 | 2.0 | 7.0 | 0.00 | 0.00 | 0.00 | 56 | 1012.5 |
| 20260506031508 | 67 | 154 | 1.0 | 5.0 | 0.00 | 0.00 | 0.00 | 54 | 1012.5 |
| 20260506030007 | 67 | 169 | 2.0 | 6.0 | 0.00 | 0.00 | 0.00 | 53 | 1012.5 |
| 20260506024523 | 68 | 150 | 3.0 | 7.0 | 0.00 | 0.00 | 0.00 | 53 | 1012.7 |
| 20260506023006 | 68 | 182 | 2.0 | 6.0 | 0.00 | 0.00 | 0.00 | 53 | 1012.7 |
| 20260506021506 | 68 | 168 | 1.0 | 3.0 | 0.00 | 0.00 | 0.00 | 52 | 1012.7 |
| 20260506020008 | 69 | 159 | 1.0 | 5.0 | 0.00 | 0.00 | 0.00 | 51 | 1012.5 |
| 20260506014513 | 69 | 153 | 1.0 | 5.0 | 0.00 | 0.00 | 0.00 | 50 | 1012.5 |
| 20260506013005 | 70 | 158 | 1.0 | 5.0 | 0.00 | 0.00 | 0.00 | 49 | 1012.3 |
| 20260506011511 | 71 | 157 | 1.0 | 6.0 | 0.00 | 0.00 | 0.00 | 48 | 1012.3 |
| 20260506010007 | 71 | 173 | 3.0 | 8.0 | 0.00 | 0.00 | 0.00 | 46 | 1012.3 |
| 20260506004505 | 72 | 175 | 2.0 | 5.0 | 0.00 | 0.00 | 0.00 | 45 | 1012.1 |
| 20260506003003 | 73 | 136 | 1.0 | 6.0 | 0.00 | 0.00 | 0.00 | 43 | 1011.9 |
| 20260506001502 | 74 | 178 | 2.0 | 10.0 | 0.00 | 0.00 | 0.00 | 42 | 1011.8 |
| 20260506000002 | 74 | 186 | 3.0 | 16.0 | 0.00 | 0.00 | 0.00 | 42 | 1011.8 |
| 20260505234505 | 75 | 176 | 5.0 | 10.0 | 0.00 | 0.00 | 0.00 | 42 | 1011.8 |
| 20260505233001 | 76 | 198 | 4.0 | 14.0 | 0.00 | 0.00 | 0.00 | 42 | 1011.7 |
| 20260505231559 | 76 | 232 | 4.0 | 11.0 | 0.00 | 0.00 | 0.00 | 41 | 1011.6 |
| 20260505230059 | 77 | 222 | 6.0 | 21.0 | 0.00 | 0.00 | 0.00 | 40 | 1011.7 |
| 20260505224559 | 77 | 144 | 3.0 | 19.0 | 0.00 | 0.00 | 0.00 | 40 | 1011.9 |
| 20260505223108 | 77 | 196 | 8.0 | 19.0 | 0.00 | 0.00 | 0.00 | 39 | 1012.1 |
| 20260505221603 | 78 | 174 | 8.0 | 16.0 | 0.00 | 0.00 | 0.00 | 38 | 1012.0 |
| 20260505220059 | 78 | 240 | 8.0 | 18.0 | 0.00 | 0.00 | 0.00 | 37 | 1012.0 |
| 20260505214602 | 78 | 225 | 13.0 | 23.0 | 0.00 | 0.00 | 0.00 | 37 | 1012.0 |
| 20260505213055 | 78 | 194 | 11.0 | 25.0 | 0.00 | 0.00 | 0.00 | 35 | 1011.8 |
| 20260505211620 | 79 | 211 | 8.0 | 15.0 | 0.00 | 0.00 | 0.00 | 36 | 1011.8 |
| 20260505210055 | 79 | 202 | 10.0 | 21.0 | 0.00 | 0.00 | 0.00 | 35 | 1011.9 |
| 20260505204555 | 79 | 174 | 11.0 | 23.0 | 0.00 | 0.00 | 0.00 | 34 | 1011.8 |
| 20260505203116 | 80 | 162 | 7.0 | 23.0 | 0.00 | 0.00 | 0.00 | 34 | 1011.7 |
| 20260505201551 | 80 | 246 | 15.0 | 25.0 | 0.00 | 0.00 | 0.00 | 34 | 1012.1 |
| 20260505200048 | 79 | 235 | 8.0 | 25.0 | 0.00 | 0.00 | 0.00 | 35 | 1012.2 |
| 20260505194546 | 79 | 213 | 17.0 | 30.0 | 0.00 | 0.00 | 0.00 | 36 | 1012.3 |
| 20260505193044 | 78 | 241 | 11.0 | 22.0 | 0.00 | 0.00 | 0.00 | 35 | 1012.5 |
| 20260505191547 | 79 | 148 | 9.0 | 19.0 | 0.00 | 0.00 | 0.00 | 33 | 1012.8 |
| 20260505190044 | 78 | 217 | 12.0 | 22.0 | 0.00 | 0.00 | 0.00 | 35 | 1012.8 |
| 20260505184547 | 79 | 211 | 9.0 | 22.0 | 0.00 | 0.00 | 0.00 | 34 | 1013.0 |
| 20260505183043 | 78 | 198 | 12.0 | 25.0 | 0.00 | 0.00 | 0.00 | 31 | 1013.1 |
| 20260505181537 | 79 | 228 | 12.0 | 22.0 | 0.00 | 0.00 | 0.00 | 31 | 1013.2 |
| 20260505180036 | 78 | 176 | 6.0 | 24.0 | 0.00 | 0.00 | 0.00 | 32 | 1013.2 |
| 20260505174534 | 78 | 207 | 11.0 | 22.0 | 0.00 | 0.00 | 0.00 | 35 | 1013.7 |
| 20260505173033 | 78 | 259 | 9.0 | 19.0 | 0.00 | 0.00 | 0.00 | 37 | 1013.6 |
| 20260505171531 | 77 | 185 | 4.0 | 17.0 | 0.00 | 0.00 | 0.00 | 39 | 1013.8 |
| 20260505170035 | 77 | 242 | 7.0 | 16.0 | 0.00 | 0.00 | 0.00 | 40 | 1014.0 |
| 20260505164533 | 76 | 213 | 5.0 | 11.0 | 0.00 | 0.00 | 0.00 | 45 | 1014.2 |
| 20260505163028 | 76 | 190 | 5.0 | 17.0 | 0.00 | 0.00 | 0.00 | 40 | 1014.4 |
| 20260505161523 | 75 | 259 | 5.0 | 12.0 | 0.00 | 0.00 | 0.00 | 42 | 1014.6 |
| 20260505153014 | 74 | 213 | 5.0 | 13.0 | 0.00 | 0.00 | 0.00 | 46 | 1015.0 |
| 20260505151509 | 73 | 254 | 8.0 | 13.0 | 0.00 | 0.00 | 0.00 | 47 | 1015.1 |